Plymouth, MA

8:53 PM EDT on April 26, 2018 (GMT -0400)
Plymouth Municipal

Weather History for KPYM - October, 2013

Change the Weather History Date:

Wednesday, October 16, 2013

  Actual Average Record
Temperature  
Mean Temperature 52 °F -  
Max Temperature 61 °F 64 °F 84 °F (1963)
Min Temperature 43 °F 42 °F 26 °F (1972)
Degree Days  
Heating Degree Days 14    
Growing Degree Days 2 (Base 50)    
Moisture  
Dew Point 51 °F    
Average Humidity 89    
Maximum Humidity 97    
Minimum Humidity 82    
Precipitation  
Precipitation 0.00 in - - ()
Sea Level Pressure  
Sea Level Pressure 30.05 in    
Wind  
Wind Speed 3 mph (NNE)    
Max Wind Speed 9 mph    
Max Gust Speed -    
Visibility 6 miles    
Events Fog    
Averages and records for this station are not official NWS values.
T = Trace of Precipitation, MM = Missing Value Source: NWS Daily Summary

Daily Weather History Graph

Daily Weather History Graph

Search for Another Location

Airport or City:

Astronomy

Oct. 16, 2013 Rise Set
Actual Time 6:56 AM EDT 5:59 PM EDT
Civil Twilight 6:28 AM EDT 6:27 PM EDT
Nautical Twilight 5:56 AM EDT 6:59 PM EDT
Astronomical Twilight 5:23 AM EDT 7:32 PM EDT
Moon 4:38 PM EDT (10/16) 4:19 AM EDT (10/16)
Length of Visible Light 11h 59m
Length of Day
11h 02m
Waxing Gibbous, 94% of the Moon is Illuminated
Oct 16
Waxing Gibbous
Oct 18
Full
Oct 26
Last Quarter
Nov 3
New
Nov 10
First Quarter

Hourly Weather History & Observations

Time (EDT) Temp. Windchill Dew Point Humidity Pressure Visibility Wind Dir Wind Speed Gust Speed Precip Events Conditions
12:32 AM 48.2 °F - 44.6 °F 87% 30.17 in 2.5 mi Calm Calm - N/A   Clear
12:52 AM 46.0 °F - 43.0 °F 89% 30.16 in 1.5 mi Calm Calm - N/A   Partly Cloudy
1:06 AM 46.4 °F - 44.6 °F 93% 30.17 in 3.0 mi Calm Calm - N/A   Partly Cloudy
1:52 AM 45.0 °F - 42.1 °F 90% 30.16 in 7.0 mi Calm Calm - N/A   Clear
1:56 AM 44.6 °F - 42.8 °F 93% 30.16 in 1.8 mi Calm Calm - N/A   Clear
2:04 AM 44.6 °F - 41.0 °F 87% 30.16 in 3.0 mi Calm Calm - N/A   Clear
2:52 AM 43.0 °F 41.3 °F 39.9 °F 89% 30.15 in 4.0 mi ENE 3.5 mph - N/A   Clear
3:52 AM 48.0 °F - 46.0 °F 93% 30.12 in 10.0 mi East 6.9 mph - N/A   Clear
4:52 AM 50.0 °F - 46.9 °F 89% 30.12 in 10.0 mi North 3.5 mph - N/A   Clear
5:52 AM 48.9 °F - 46.9 °F 93% 30.12 in 10.0 mi NW 3.5 mph - N/A   Clear
6:52 AM 51.1 °F - 48.0 °F 89% 30.11 in 10.0 mi NE 3.5 mph - N/A   Clear
7:41 AM 53.6 °F - 51.8 °F 94% 30.12 in 10.0 mi Calm Calm - N/A   Mostly Cloudy
7:52 AM 55.9 °F - 52.0 °F 87% 30.12 in 10.0 mi NNE 3.5 mph - N/A   Overcast
8:52 AM 57.9 °F - 54.0 °F 87% 30.12 in 10.0 mi NE 6.9 mph - N/A   Overcast
9:10 AM 57.2 °F - 53.6 °F 88% 30.11 in 10.0 mi NE 8.1 mph - N/A   Overcast
9:30 AM 59.0 °F - 53.6 °F 82% 30.10 in 10.0 mi NE 8.1 mph - N/A   Overcast
9:52 AM 59.0 °F - 54.0 °F 83% 30.08 in 10.0 mi NE 9.2 mph - N/A   Overcast
10:52 AM 60.1 °F - 55.0 °F 83% 30.07 in 10.0 mi NNE 9.2 mph - N/A   Overcast
11:52 AM 60.1 °F - 55.0 °F 83% 30.06 in 3.0 mi NNE 9.2 mph - N/A   Haze
12:52 PM 60.1 °F - 55.0 °F 83% 30.03 in 7.0 mi NNE 8.1 mph - N/A   Overcast
1:52 PM 59.0 °F - 55.0 °F 87% 30.01 in 4.0 mi NNE 8.1 mph - N/A   Overcast
2:52 PM 59.0 °F - 55.0 °F 87% 30.01 in 10.0 mi NNE 8.1 mph - N/A   Overcast
3:52 PM 57.9 °F - 54.0 °F 87% 29.99 in 10.0 mi NNE 6.9 mph - N/A   Overcast
4:52 PM 57.9 °F - 54.0 °F 87% 29.99 in 10.0 mi NNE 9.2 mph - N/A   Overcast
5:52 PM 57.9 °F - 54.0 °F 87% 29.98 in 10.0 mi NNE 4.6 mph - N/A   Overcast
6:52 PM 57.0 °F - 54.0 °F 89% 29.98 in 10.0 mi NNE 4.6 mph - N/A   Overcast
7:52 PM 57.0 °F - 54.0 °F 89% 29.97 in 10.0 mi NNE 4.6 mph - N/A   Overcast
8:15 PM 57.2 °F - 53.6 °F 88% 29.97 in 10.0 mi North 5.8 mph - N/A   Overcast
8:52 PM 57.0 °F - 54.0 °F 89% 29.97 in 10.0 mi NNE 5.8 mph - N/A   Overcast
9:52 PM 57.0 °F - 54.0 °F 89% 29.96 in 5.0 mi Calm Calm - N/A   Overcast
10:11 PM 57.2 °F - 55.4 °F 94% 29.94 in 1.8 mi Calm Calm - N/A   Overcast
10:32 PM 57.2 °F - 55.4 °F 94% 29.95 in 3.0 mi Calm Calm - N/A   Overcast
10:40 PM 57.2 °F - 53.6 °F 88% 29.94 in 1.8 mi Calm Calm - N/A   Overcast
10:52 PM 57.0 °F - 55.0 °F 93% 29.94 in 1.0 mi Calm Calm - N/A   Overcast
11:01 PM 57.2 °F - 53.6 °F 88% 29.93 in 3.0 mi ESE 3.5 mph - N/A   Overcast
11:13 PM 57.2 °F - 53.6 °F 88% 29.93 in 1.8 mi Calm Calm - N/A   Overcast
11:26 PM 57.2 °F - 55.4 °F 94% 29.92 in 0.5 mi Calm Calm - N/A Fog Fog
11:52 PM 55.9 °F - 55.0 °F 97% 29.93 in 0.8 mi Calm Calm - N/A   Mist